Location: Table Mountain
(47.2500°N, 120.5778°W)
Time: 16:59:03
(UTC-07:00)

POLYITAN 1 - Visible Passes

Search period start: 18 August 2018 00:00
Search period end: 28 August 2018 00:00
Orbit: 593 x 613 km, 97.9° (Epoch: 18 August)

Date Brightness Start Highest point End Pass type
(mag) Time Alt. Az. Time Alt. Az. Time Alt. Az.
18 Aug ? 01:13:58 10° NNE 01:16:36 35° NNE 01:16:36 35° NNE visible
18 Aug ? 02:50:57 10° NNW 02:53:24 16° WNW 02:53:24 16° WNW visible
19 Aug ? 01:25:53 10° NNE 01:28:36 38° NNE 01:28:36 38° NNE visible
19 Aug ? 03:03:31 10° NNW 03:05:20 12° WNW 03:05:24 12° WNW visible
20 Aug ? 01:37:51 10° N 01:40:35 38° N 01:40:35 38° N visible
21 Aug ? 00:15:16 10° NE 00:15:47 12° ENE 00:15:47 12° ENE visible
21 Aug ? 01:49:51 10° N 01:52:35 36° NNW 01:52:35 36° NNW visible
22 Aug ? 00:26:44 10° NE 00:27:46 15° NE 00:27:46 15° NE visible
22 Aug ? 02:01:54 10° N 02:04:34 32° NNW 02:04:34 32° NNW visible
23 Aug ? 00:38:22 10° NE 00:39:45 17° NE 00:39:45 17° NE visible
23 Aug ? 02:13:59 10° N 02:16:33 27° NW 02:16:33 27° NW visible
24 Aug ? 00:50:06 10° NNE 00:51:44 20° NE 00:51:44 20° NE visible
24 Aug ? 02:26:09 10° N 02:28:32 23° NW 02:28:32 23° NW visible
25 Aug ? 01:01:54 10° NNE 01:03:43 23° NE 01:03:43 23° NE visible
25 Aug ? 02:38:22 10° NNW 02:40:31 19° NW 02:40:31 19° NW visible
26 Aug ? 01:13:46 10° NNE 01:15:42 26° NNE 01:15:42 26° NNE visible
26 Aug ? 02:50:43 10° NNW 02:52:30 15° NW 02:52:30 15° NW visible
27 Aug ? 01:25:41 10° NNE 01:27:41 27° NNE 01:27:41 27° NNE visible
27 Aug ? 03:03:15 10° NNW 03:04:29 12° NW 03:04:29 12° NW visible
